TOURFACTS.DK  
Stats and Facts from Tour de France.

Tour de France 2019 starts in 348 days
  Riders   Stages   Teams   Summits   Yearly  


 
Search by year

After 2018 - Stage 14:
 15000 starters.
  5163 different riders.
  639 teams.
  2246 stages.
  456 restdays.
  441957.60 km.
  5678 abandonnees.


Top 3
GC
Christopher Froome86:20:55
Rigoberto Urán86:21:49
Romain Bardet86:23:15
Climb
Warren Barguil169 pt.
Primoz Roglic80 pt.
Thomas De Gendt64 pt.
Sprint
Michael Matthews359 pt.
André Greipel234 pt.
Edvald Boasson Hagen220 pt.
Youth
Simon Yates86:27:09
Louis Meintjes86:29:15
Emanuel Buchmann86:54:16
Facts from Tour de France 1931
  |   Stages.  |   Stage winners.  |   Days in yellow  |   Average speed.  |   Route.  |   Teams.  |   All riders.  |   Rookies.  |  

  |   Withdrawls.  |   GC.  |   Polka  |   Green  |   White  |   Summits. (In tour)  |   Miscellaneous.  |  

Stage 2 on July 1st. 1931
         Owning:    Max Bulla    
Pick a stage:  1 2 3 4 5 6 7 8 9 10 11 12 13 14 15 16 17 18 19 20 21 22 23 24
From: Caen    To: DinanDist:212.00 km.

Average speed for all riders in stage:  31,077 km./hr.
    Place:Name:Team:Time:Km/h:
AUTMax BullaTouristes Routiers06:37:14  +  00:00:00=32,021 
FRARené BernardTouristes Routiers06:37:14  +  00:00:00=32,021 
FRAAndré Van VierstTouristes Routiers06:37:14  +  00:00:00=32,021 
4 FRACharles PelissierFRAFrance06:40:00  +  00:02:46=31,800 
5 ITARafaële Di PacoITAItaly06:40:00  +  00:02:46=31,800 
6 BELAlfred HamerlinckBELBelgium06:40:00  +  00:02:46=31,800 
7 GERErich MetzeDEUGermany06:40:00  +  00:02:46=31,800 
8 BELJef DemuysereBELBelgium06:40:00  +  00:02:46=31,800 
9 FRALéon Le CalvezFRAFrance06:40:00  +  00:02:46=31,800 
10 AUSHubert OppermanCHEAustralia-Switzerland06:40:00  +  00:02:46=31,800 
11 SUIAlbert BüchiCHEAustralia-Switzerland06:40:00  +  00:02:46=31,800 
12 ITALuigi GiacobbeITAItaly06:40:00  +  00:02:46=31,800 
13 SUIGeorges AntenenCHEAustralia-Switzerland06:40:00  +  00:02:46=31,800 
14 FRAAntonin MagneFRAFrance06:40:00  +  00:02:46=31,800 
15 BELAlfons SchepersBELBelgium06:40:00  +  00:02:46=31,800 
16 GERLudwig GeyerDEUGermany06:40:00  +  00:02:46=31,800 
17 GERHerbert SieronskiDEUGermany06:40:00  +  00:02:46=31,800 
18 POLAlfred SiegelDEUGermany06:40:00  +  00:02:46=31,800 
19 GERHermann BuseDEUGermany06:40:00  +  00:02:46=31,800 
20 SUIRoger PipozCHEAustralia-Switzerland06:40:00  +  00:02:46=31,800 
21 ITAFelice GremoITAItaly06:40:00  +  00:02:46=31,800 
22 BELRomain GijsselsBELBelgium06:40:00  +  00:02:46=31,800 
23 BELMaurice De WaeleBELBelgium06:40:00  +  00:02:46=31,800 
24 ITAFabio BattesiniITAItaly06:40:00  +  00:02:46=31,800 
25 ITAFrancesco CamussoITAItaly06:40:00  +  00:02:46=31,800 
26 ITAEugenio GestriITAItaly06:40:00  +  00:02:46=31,800 
27 BELJulien VervaeckeBELBelgium06:40:00  +  00:02:46=31,800 
28 BELGaston RebryBELBelgium06:40:00  +  00:02:46=31,800 
29 ITAMichele OrecchiaITAItaly06:40:00  +  00:02:46=31,800 
30 ITAAntonio PesentiITAItaly06:40:00  +  00:02:46=31,800 
31 FRABenoit FaureFRAFrance06:40:35  +  00:03:21=31,754 
32 GEROskar ThierbachDEUGermany06:40:50  +  00:03:36=31,734 
33 FRAAndré LeducqFRAFrance06:40:50  +  00:03:36=31,734 
34 FRALouis PeglionFRAFrance06:40:50  +  00:03:36=31,734 
35 GERKurt StöpelDEUGermany06:41:07  +  00:03:53=31,711 
36 BELGerard LonckeTouristes Routiers06:41:51  +  00:04:37=31,654 
37 FRAJean MaréchalFRAFrance06:42:10  +  00:04:56=31,629 
38 BELGeorges LaloupTouristes Routiers06:43:52  +  00:06:38=31,496 
39 BELRobert Van GrootenbrueleTouristes Routiers06:43:57  +  00:06:43=31,489 
40 BELJean NaertTouristes Routiers06:43:57  +  00:06:43=31,489 
41 ITAGiuseppe PanceraTouristes Routiers06:43:57  +  00:06:43=31,489 
42 FRALouis BajardTouristes Routiers06:43:57  +  00:06:43=31,489 
43 FRAJean BidotTouristes Routiers06:43:57  +  00:06:43=31,489 
44 FRAMarius GuiramandTouristes Routiers06:43:57  +  00:06:43=31,489 
45 ITAAlessandro CatalaniTouristes Routiers06:43:57  +  00:06:43=31,489 
46 BELJules GoedhuysTouristes Routiers06:43:57  +  00:06:43=31,489 
47 FRAFrancois HenriTouristes Routiers06:44:10  +  00:06:56=31,472 
48 FRAGeorges BertonTouristes Routiers06:44:40  +  00:07:26=31,433 
49 GERKarl AltenburgerDEUGermany06:47:30  +  00:10:16=31,215 
50 FRAMarcel MazeyratTouristes Routiers06:50:36  +  00:13:22=30,979 
51 BELAchille ViaeneTouristes Routiers06:50:47  +  00:13:33=30,965 
52 FRALazare VenotTouristes Routiers06:50:47  +  00:13:33=30,965 
53 FRAJoseph MauclairFRAFrance06:54:34  +  00:17:20=30,683 
54 AUSFrankie ThomasCHEAustralia-Switzerland06:55:23  +  00:18:09=30,622 
55 ESPFrancisco CepedaESPSpain06:57:01  +  00:19:47=30,502 
56 FRAFrancis BouilletTouristes Routiers06:57:26  +  00:20:12=30,472 
57 BELFrançois MoreelsTouristes Routiers06:57:26  +  00:20:12=30,472 
58 FRAFrancois FavéTouristes Routiers06:57:52  +  00:20:38=30,440 
59 FRAJean FontenayTouristes Routiers06:58:44  +  00:21:30=30,377 
60 FRARobert BrugéreTouristes Routiers06:59:25  +  00:22:11=30,328 
61 FRAFernand FayolleTouristes Routiers06:59:25  +  00:22:11=30,328 
62 BELAuguste Van TrichtTouristes Routiers07:01:46  +  00:24:32=30,159 
63 GERErich UssatTouristes Routiers07:01:46  +  00:24:32=30,159 
64 BELBernard Van RysselbergheBELBelgium07:07:26  +  00:30:12=29,759 
65 ITAAmulio ViarengoTouristes Routiers07:09:02  +  00:31:48=29,648 
66 ESPSalvador CardonaTouristes Routiers07:09:38  +  00:32:24=29,607 
67 FRAAndré GodinatTouristes Routiers07:14:20  +  00:37:06=29,286 
68 GERKurt NitzschkeTouristes Routiers07:14:33  +  00:37:19=29,272 
69 FRAJulien PerrainTouristes Routiers07:14:45  +  00:37:31=29,258 
70 FRAAdrien ButtafocchiTouristes Routiers07:18:05  +  00:40:51=29,036 
71 FRAJean RiondetTouristes Routiers07:20:46  +  00:43:32=28,859 
72 ITAPietro MoriTouristes Routiers07:21:20  +  00:44:06=28,822 
73 AUSRichard LambCHEAustralia-Switzerland07:27:15  +  00:50:01=28,440 
74 AUSOserick NicholsonCHEAustralia-Switzerland07:27:15  +  00:50:01=28,440 

Withdrawls: 7
 
Rider
Team
Reason
21  SUIJules GillardCHEAustralia-SwitzerlandDid not finish
111  ITAAristide CavalliniTouristes RoutiersDid not finish
113  ITAPierino FerioliTouristes RoutiersDid not finish
118  POLKarl OlböterTouristes RoutiersDid not finish
119  FRALucien LavalTouristes RoutiersDid not finish
131  FRAGabriel HarguesTouristes RoutiersDid not finish
138  FRAFernand RobacheTouristes RoutiersDid not finish

Todays birthdays.

1877  Antoine Perrichon
1878  Auguste Berthault
1911  Théo Herckenrath
1924  Carlo Lafranchi
1931  Armand Di Caro
1937  Jean-Claude Lebaube
1951  Giovanni Battaglin
1961  Pascal Jules
1962  Jean-Claude Leclercq
1976  Janek Tombak
1978  Francisco Pérez
1983  Dries Devenyns




Visits: